Retour au catalogue

IRIDIUM 24

ActifCommunicationsPO
NORAD 25105·PAYLOAD·🇺🇸 United States

Lancé Dec 20, 1997 depuis Vandenberg Space Force Base

Loading…

Prochains Passages (prochaines 24 heures)

TLE

FraisSource: Space-Track

Époque: Sep 14, 2026, 10:30 UTC

1 25105U 97082B   26257.43799785  .00000279  00000-0  77892-4 0  9998
2 25105  86.3858 247.5259 0012114  27.0740 333.1090 14.42568980508690

Suivez IRIDIUM 24 en temps réel avec AllMySat

Download on the App Store